M I D A S
Marine Information and Data Acquisition System
Tripno 1182 of the Zeeleeuw from 2006-12-21 07:38:37 to 2006-12-21 14:01:52
Back to CruiseResearch ActivitiesStationsMapUnderway DataData graphs

EquipmentUnitsComment
TimeDGPSUTC
LatitudeDGPSDM.mWGS84
LongitudeDGPSDM.mWGS84
TemperatureSBE03/SBE38deg celciusITS90
ConductivitySBE21S/mITS90
SalinitySBE21 Practical Salinity Units
ChlorophylAChelsea fluorimeterg/lCalibrated in Aceton
Missing or incorrect values are displayed as -999
Sea surface data collected by the RV Zeeleeuw from 2006-12-21 07:37:35 to 2006-12-21 14:10:29
Time Latitude Longitude Temperature Conductivity Salinity ChlorophylA
2006-12-21 07:38:43 51°13.611 2°56.042 13.3212 0.063444 0.379685 -2.871232
2006-12-21 07:39:43 51°13.637 2°55.936 13.343 0.063444 0.379693 -2.871232
2006-12-21 07:40:43 51°13.686 2°55.811 13.4077 0.063444 0.379702 -2.871232
2006-12-21 07:41:42 51°13.726 2°55.717 13.3906 0.063444 0.37971 -2.871232
2006-12-21 07:42:41 51°13.737 2°55.719 13.3498 0.063444 0.379735 -2.871232
2006-12-21 07:43:42 51°13.736 2°55.699 13.4734 0.063444 0.379735 -2.871232
2006-12-21 07:44:42 51°13.791 2°55.671 13.4058 0.063444 0.379752 -2.871232
2006-12-21 07:45:41 51°13.905 2°55.584 13.2905 0.063444 0.379752 -2.871232
2006-12-21 07:46:42 51°14.039 2°55.487 13.2925 0.063444 0.379752 -2.871232
2006-12-21 07:47:42 51°14.17 2°55.383 13.4279 0.063444 0.379777 -2.871232
2006-12-21 07:48:43 51°14.294 2°55.218 13.4183 0.063444 0.379785 -2.871232
2006-12-21 07:49:40 51°14.4 2°55.007 13.4493 0.063444 0.379794 -2.871232
2006-12-21 07:50:39 51°14.52 2°54.741 13.287 0.063444 0.379794 -2.871232
2006-12-21 07:51:38 51°14.693 2°54.548 13.3374 0.063444 0.379811 -2.871232
2006-12-21 07:52:39 51°14.879 2°54.347 13.2239 0.063444 0.379819 -2.871232
2006-12-21 07:53:39 51°15.063 2°54.173 13.3203 0.063444 0.379844 -2.871232
2006-12-21 07:54:39 51°15.244 2°53.981 13.3397 0.063444 0.379852 -2.871232
2006-12-21 07:55:39 51°15.433 2°53.794 13.351 0.063444 0.379869 -2.871232
2006-12-21 07:56:38 51°15.624 2°53.611 13.3559 0.063444 0.379877 -2.871232
2006-12-21 07:57:39 51°15.825 2°53.423 13.3528 0.063444 0.379903 -2.871232
2006-12-21 07:58:39 51°16.02 2°53.23 13.3734 0.063444 0.379911 -2.871232
2006-12-21 07:59:39 51°16.216 2°53.042 13.3499 0.063444 0.379928 -2.871232
2006-12-21 08:00:38 51°16.412 2°52.872 13.3289 0.063444 0.379936 -2.871232
2006-12-21 08:01:39 51°16.615 2°52.705 13.3779 0.063444 0.379944 -2.871232
2006-12-21 08:02:38 51°16.815 2°52.582 13.3821 0.063444 0.379961 -2.871232
2006-12-21 08:03:39 51°17.026 2°52.51 13.4029 0.063444 0.37997 -2.871232
2006-12-21 08:04:39 51°17.237 2°52.471 13.4133 0.063444 0.379986 -2.871232
2006-12-21 08:05:39 51°17.451 2°52.45 13.4004 0.063444 0.379995 -2.871232
2006-12-21 08:06:39 51°17.663 2°52.463 13.4088 0.063444 0.380011 -2.871232
2006-12-21 08:07:39 51°17.873 2°52.497 13.4104 0.063341 0.379391 -2.871232
2006-12-21 08:08:39 51°18.08 2°52.548 13.4397 0.063444 0.380037 -2.871232
2006-12-21 08:09:39 51°18.251 2°52.729 13.4196 0.063444 0.380045 -2.871232
2006-12-21 08:10:39 51°18.369 2°52.997 13.4957 0.063444 0.380053 -2.871232
2006-12-21 08:11:39 51°18.473 2°53.283 13.4774 0.063341 0.379432 -2.871232
2006-12-21 08:12:39 51°18.581 2°53.562 13.5583 0.063444 0.380078 -2.871232
2006-12-21 08:13:39 51°18.687 2°53.843 13.5476 0.063341 0.379457 -2.871232
2006-12-21 08:14:39 51°18.79 2°54.127 13.5592 0.063444 0.380104 -2.871232
2006-12-21 08:15:39 51°18.886 2°54.417 13.5194 0.063341 0.379483 -2.871232
2006-12-21 08:16:39 51°18.978 2°54.708 13.5658 0.063341 0.379483 -2.871232
2006-12-21 08:17:39 51°19.069 2°54.997 13.5826 0.063341 0.379499 -2.871232
2006-12-21 08:18:39 51°19.154 2°55.292 13.6469 0.063444 0.380145 -2.871232
2006-12-21 08:19:39 51°19.238 2°55.587 13.6879 0.063341 0.379508 -2.871232
2006-12-21 08:20:39 51°19.322 2°55.88 13.6852 0.063341 0.379524 -2.871232
2006-12-21 08:21:39 51°19.406 2°56.175 13.7036 0.063341 0.379524 -2.871232
2006-12-21 08:22:39 51°19.49 2°56.472 13.7361 0.063341 0.379533 -2.871232
2006-12-21 08:23:39 51°19.576 2°56.771 13.7384 0.063444 0.380179 -2.871232
2006-12-21 08:24:39 51°19.662 2°57.071 13.7599 0.063341 0.37955 -2.871232
2006-12-21 08:25:39 51°19.75 2°57.374 13.7345 0.063444 0.380196 -2.871232
2006-12-21 08:26:39 51°19.84 2°57.676 13.7885 0.063341 0.379566 -2.871232
2006-12-21 08:27:39 51°19.929 2°57.979 13.8127 0.063341 0.379575 -2.871232
2006-12-21 08:28:39 51°20.018 2°58.284 13.8029 0.063341 0.379583 -2.871232
2006-12-21 08:29:39 51°20.107 2°58.587 13.8685 0.063341 0.379591 -2.871232
2006-12-21 08:30:39 51°20.196 2°58.891 13.8849 0.063341 0.3796 -2.871232
2006-12-21 08:31:39 51°20.285 2°59.195 13.8619 0.063444 0.380246 -2.871232
2006-12-21 08:32:39 51°20.375 2°59.502 13.9135 0.063341 0.379616 -2.871232
2006-12-21 08:33:39 51°20.464 2°59.807 13.8943 0.063341 0.379625 -2.871232
2006-12-21 08:34:39 51°20.554 3°0.112 13.8983 0.063341 0.379642 -2.871232
2006-12-21 08:35:39 51°20.643 3°0.419 13.9326 0.063341 0.37965 -2.871232
2006-12-21 08:36:39 51°20.733 3°0.726 13.9821 0.063341 0.379658 -2.871232
2006-12-21 08:37:39 51°20.82 3°1.033 13.9413 0.063341 0.379658 -2.871232
2006-12-21 08:38:39 51°20.894 3°1.351 14.0233 0.063341 0.379675 -2.871232
2006-12-21 08:39:39 51°20.967 3°1.666 14.0096 0.063341 0.379683 -2.871232
2006-12-21 08:40:39 51°21.04 3°1.978 13.9792 0.063341 0.379692 -2.871232
2006-12-21 08:41:39 51°21.112 3°2.292 14.0263 0.063341 0.379709 -2.871232
2006-12-21 08:42:39 51°21.187 3°2.607 14.0619 0.063341 0.379717 -2.871232
2006-12-21 08:43:39 51°21.261 3°2.921 14.0493 0.063341 0.379725 -2.871232
2006-12-21 08:44:39 51°21.335 3°3.237 14.0222 0.063341 0.379734 -2.871232
2006-12-21 08:45:39 51°21.409 3°3.555 14.0946 0.063341 0.37975 -2.871232
2006-12-21 08:46:39 51°21.482 3°3.874 14.1059 0.063341 0.379759 -2.871232
2006-12-21 08:47:39 51°21.548 3°4.198 14.1295 0.063341 0.379767 -2.871232
2006-12-21 08:48:39 51°21.613 3°4.522 14.1431 0.063341 0.379776 -2.871232
2006-12-21 08:49:39 51°21.668 3°4.851 14.2081 0.063341 0.379792 -2.871232
2006-12-21 08:50:39 51°21.724 3°5.179 14.2174 0.063341 0.379801 -2.871232
2006-12-21 08:51:39 51°21.776 3°5.508 14.2493 0.063341 0.379801 -2.871232
2006-12-21 08:52:39 51°21.821 3°5.839 14.2387 0.063341 0.379818 -2.871232
2006-12-21 08:53:39 51°21.867 3°6.169 14.2596 0.063341 0.379826 -2.871232
2006-12-21 08:54:39 51°21.911 3°6.499 14.298 0.063341 0.379834 -2.871232
2006-12-21 08:55:39 51°21.954 3°6.83 14.331 0.063341 0.379843 -2.871232
2006-12-21 08:56:39 51°21.995 3°7.164 14.316 0.063341 0.379859 -2.871232
2006-12-21 08:57:39 51°22.035 3°7.502 14.3747 0.063341 0.379859 -2.871232
2006-12-21 08:58:39 51°22.074 3°7.843 14.3711 0.063341 0.379868 -2.871232
2006-12-21 08:59:39 51°22.113 3°8.184 14.3541 0.063341 0.379885 -2.871232
2006-12-21 09:00:39 51°22.154 3°8.526 14.3884 0.063341 0.379893 -2.871232
2006-12-21 09:01:39 51°22.196 3°8.87 14.4484 0.063341 0.379901 -2.871232
2006-12-21 09:02:39 51°22.236 3°9.217 14.4582 0.063341 0.379901 -2.871232
2006-12-21 09:03:39 51°22.276 3°9.566 14.4856 0.063341 0.379918 -2.871232
2006-12-21 09:04:39 51°22.318 3°9.916 14.5248 0.063341 0.379927 -2.871232
2006-12-21 09:05:39 51°22.358 3°10.269 14.5268 0.063341 0.379935 -2.871232
2006-12-21 09:06:39 51°22.405 3°10.625 14.586 0.063341 0.379943 -2.871232
2006-12-21 09:07:39 51°22.45 3°10.978 14.5289 0.063341 0.37996 -2.871232
2006-12-21 09:08:39 51°22.494 3°11.331 14.5544 0.063341 0.37996 -2.871232
2006-12-21 09:09:39 51°22.57 3°11.67 14.6687 0.063341 0.379977 -2.871232
2006-12-21 09:10:39 51°22.71 3°11.951 14.6007 0.063341 0.379977 -2.871232
2006-12-21 09:11:39 51°22.876 3°12.188 14.6114 0.063341 0.379977 -2.871232
2006-12-21 09:12:39 51°23.04 3°12.425 14.6075 0.063341 0.379985 -2.871232
2006-12-21 09:13:39 51°23.202 3°12.664 14.5712 0.063238 0.379363 -2.871232
2006-12-21 09:14:39 51°23.364 3°12.902 14.7798 0.063341 0.38001 -2.871232
2006-12-21 09:15:39 51°23.573 3°12.968 14.6394 0.063341 0.380027 -2.871232
2006-12-21 09:16:39 51°23.792 3°12.889 14.591 0.063341 0.380019 -2.871232
2006-12-21 09:17:39 51°24.013 3°12.808 14.6827 0.063238 0.37938 -2.871232
2006-12-21 09:18:39 51°24.239 3°12.727 14.6557 0.063238 0.379397 -2.871232
2006-12-21 09:19:39 51°24.468 3°12.647 14.6993 0.063238 0.379397 -2.871232
2006-12-21 09:20:39 51°24.698 3°12.568 14.7309 0.063238 0.379405 -2.871232
2006-12-21 09:21:39 51°24.925 3°12.498 14.8591 0.063238 0.379414 -2.871232
2006-12-21 09:22:39 51°25.114 3°12.322 14.8618 0.063341 0.380061 -2.871232
2006-12-21 09:23:39 51°25.19 3°12.005 14.8243 0.063238 0.379447 -2.871232
2006-12-21 09:24:39 51°25.137 3°11.649 14.7127 0.063238 0.379422 -2.871232
2006-12-21 09:25:39 51°25.067 3°11.294 14.7991 0.063238 0.37943 -2.871232
2006-12-21 09:26:39 51°24.972 3°10.95 14.7735 0.063238 0.379447 -2.871232
2006-12-21 09:27:39 51°24.882 3°10.606 14.787 0.063238 0.379456 -2.871232
2006-12-21 09:28:39 51°24.816 3°10.253 14.7962 0.063341 0.380094 -2.871232
2006-12-21 09:29:39 51°24.74 3°9.9 14.775 0.063341 0.380111 -2.871232
2006-12-21 09:30:39 51°24.675 3°9.541 14.8488 0.063238 0.379472 -2.871232
2006-12-21 09:31:39 51°24.618 3°9.177 14.8654 0.063238 0.379472 -2.871232
2006-12-21 09:32:39 51°24.582 3°8.808 14.8907 0.063238 0.379481 -2.871232
2006-12-21 09:33:39 51°24.562 3°8.436 14.9195 0.063238 0.379489 -2.871232
2006-12-21 09:34:39 51°24.569 3°8.064 14.9078 0.063238 0.379498 -2.871232
2006-12-21 09:35:39 51°24.614 3°7.708 14.8137 0.063238 0.379498 -2.871232
2006-12-21 09:36:39 51°24.78 3°7.49 14.9957 0.063238 0.379523 -2.871232
2006-12-21 09:37:39 51°24.974 3°7.342 14.9996 0.063238 0.379523 -2.871232
2006-12-21 09:38:39 51°25.163 3°7.193 14.9417 0.063238 0.379539 -2.871232
2006-12-21 09:39:39 51°25.359 3°7.06 14.988 0.063238 0.379539 -2.871232
2006-12-21 09:40:39 51°25.561 3°6.944 15.0106 0.063238 0.379556 -2.871232
2006-12-21 09:41:39 51°25.763 3°6.83 15.0814 0.063238 0.379565 -2.871232
2006-12-21 09:42:39 51°25.966 3°6.746 14.9554 0.063238 0.379565 -2.871232
2006-12-21 09:43:39 51°26.157 3°6.867 15.0064 0.063238 0.379573 -2.871232
2006-12-21 09:44:39 51°26.313 3°7.088 15.0803 0.063238 0.379573 -2.871232
2006-12-21 09:45:39 51°26.432 3°7.366 15.1177 0.063238 0.379581 -2.871232
2006-12-21 09:46:39 51°26.537 3°7.658 15.1838 0.063238 0.37959 -2.871232
2006-12-21 09:47:39 51°26.665 3°7.927 15.196 0.063238 0.37959 -2.871232
2006-12-21 09:48:39 51°26.793 3°8.197 15.1966 0.063238 0.37959 -2.871232
2006-12-21 09:49:39 51°26.913 3°8.476 15.2186 0.063238 0.37959 -2.871232
2006-12-21 09:50:39 51°27.044 3°8.729 15.2818 0.063238 0.379623 -2.871232
2006-12-21 09:51:39 51°27.242 3°8.735 15.2431 0.063238 0.379615 -2.871232
2006-12-21 09:52:39 51°27.429 3°8.574 15.1745 0.063238 0.379598 -2.871232
2006-12-21 09:53:39 51°27.613 3°8.39 15.2444 0.063238 0.379598 -2.871232
2006-12-21 09:54:39 51°27.796 3°8.202 15.2235 0.063238 0.379615 -2.871232
2006-12-21 09:55:39 51°27.98 3°8.015 15.2366 0.063238 0.379615 -2.871232
2006-12-21 09:56:39 51°28.164 3°7.823 15.2976 0.063238 0.379615 -2.871232
2006-12-21 09:57:39 51°28.349 3°7.63 15.2863 0.063238 0.379615 -2.871232
2006-12-21 09:58:39 51°28.533 3°7.434 15.3109 0.063238 0.379623 -2.871232
2006-12-21 09:59:39 51°28.717 3°7.241 15.3257 0.063238 0.379623 -2.871232
2006-12-21 10:00:39 51°28.901 3°7.046 15.3035 0.063238 0.379623 -2.871232
2006-12-21 10:01:39 51°29.085 3°6.85 15.3154 0.063238 0.379632 -2.871232
2006-12-21 10:02:39 51°29.271 3°6.657 15.3729 0.063238 0.379632 -2.871232
2006-12-21 10:03:39 51°29.459 3°6.467 15.3456 0.063238 0.37964 -2.871232
2006-12-21 10:04:39 51°29.65 3°6.282 15.3118 0.063238 0.379648 -2.871232
2006-12-21 10:05:39 51°29.769 3°6.273 15.3982 0.063238 0.379699 -2.871232
2006-12-21 10:06:39 51°29.773 3°6.401 15.4138 0.063238 0.379674 -2.871232
2006-12-21 10:07:39 51°29.737 3°6.582 15.4131 0.063238 0.379707 -2.871232
2006-12-21 10:08:39 51°29.619 3°6.648 15.4287 0.063238 0.379716 -2.871232
2006-12-21 10:09:39 51°29.511 3°6.71 15.4339 0.063238 0.379716 -2.871232
2006-12-21 10:10:39 51°29.43 3°6.784 15.5124 0.063238 0.379724 -2.871232
2006-12-21 10:11:39 51°29.404 3°6.955 15.615 0.063238 0.379749 -2.871232
2006-12-21 10:12:39 51°29.552 3°7.036 15.6764 0.063238 0.379758 -2.871232
2006-12-21 10:13:39 51°29.691 3°6.78 15.6342 0.063238 0.379699 -2.871232
2006-12-21 10:14:39 51°29.858 3°6.546 15.5687 0.063238 0.379716 -2.871232
2006-12-21 10:15:39 51°30.027 3°6.311 15.5936 0.063238 0.379732 -2.871232
2006-12-21 10:16:39 51°30.199 3°6.079 15.5864 0.063238 0.379749 -2.871232
2006-12-21 10:17:39 51°30.371 3°5.848 15.5967 0.063238 0.379732 -2.871232
2006-12-21 10:18:39 51°30.542 3°5.615 15.5967 0.063238 0.379732 -2.871232
2006-12-21 10:19:39 51°30.716 3°5.385 15.5637 0.063238 0.379732 -2.871232
2006-12-21 10:20:39 51°30.892 3°5.163 15.5905 0.063238 0.379724 -2.871232
2006-12-21 10:21:39 51°31.076 3°4.956 15.622 0.063238 0.379724 -2.871232
2006-12-21 10:22:39 51°31.265 3°4.758 15.6194 0.063238 0.379724 -2.871232
2006-12-21 10:23:39 51°31.455 3°4.567 15.6196 0.063238 0.379724 -2.871232
2006-12-21 10:24:39 51°31.65 3°4.389 15.6072 0.063238 0.379724 -2.871232
2006-12-21 10:25:39 51°31.848 3°4.215 15.6395 0.063238 0.379724 -2.871232
2006-12-21 10:26:39 51°32.045 3°4.046 15.6276 0.063238 0.379724 -2.871232
2006-12-21 10:27:39 51°32.244 3°3.882 15.6328 0.063238 0.379724 -2.871232
2006-12-21 10:28:39 51°32.443 3°3.726 15.6414 0.063238 0.379724 -2.871232
2006-12-21 10:29:39 51°32.639 3°3.562 15.7479 0.063238 0.379758 -2.871232
2006-12-21 10:30:39 51°32.592 3°3.294 15.902 0.063238 0.379825 -2.871232
2006-12-21 10:31:39 51°32.409 3°3.386 15.8599 0.063238 0.379716 -2.871232
2006-12-21 10:32:39 51°32.289 3°3.569 15.8536 0.063238 0.379724 -2.871232
2006-12-21 10:33:40 51°32.211 3°3.67 15.8817 0.063238 0.379741 -2.871232
2006-12-21 10:34:42 51°32.218 3°3.677 15.8644 0.063238 0.379758 -2.871232
2006-12-21 10:35:42 51°32.187 3°3.644 15.9162 0.063238 0.379766 -2.871232
2006-12-21 10:36:43 51°32.173 3°3.65 15.9383 0.063238 0.379749 -2.871232
2006-12-21 10:37:40 51°32.174 3°3.613 15.9614 0.063238 0.379749 -2.871232
2006-12-21 10:38:40 51°32.171 3°3.597 15.9753 0.063238 0.379749 -2.871232
2006-12-21 10:39:40 51°32.209 3°3.519 15.9485 0.063238 0.379758 -2.871232
2006-12-21 10:40:40 51°32.318 3°3.274 15.9868 0.063238 0.379749 -2.871232
2006-12-21 10:41:40 51°32.4 3°2.942 15.9955 0.063238 0.379749 -2.871232
2006-12-21 10:42:40 51°32.426 3°2.577 16.0228 0.063238 0.379758 -2.871232
2006-12-21 10:43:40 51°32.447 3°2.211 16.0331 0.063238 0.379758 -2.871232
2006-12-21 10:44:40 51°32.458 3°1.843 15.9747 0.063238 0.379766 -2.871232
2006-12-21 10:45:40 51°32.468 3°1.475 16.0954 0.063238 0.379758 -2.871232
2006-12-21 10:46:40 51°32.48 3°1.105 16.0782 0.063238 0.379766 -2.871232
2006-12-21 10:47:40 51°32.452 3°0.736 16.0703 0.063238 0.379774 -2.871232
2006-12-21 10:48:40 51°32.402 3°0.37 16.1038 0.063238 0.379766 -2.871232
2006-12-21 10:49:40 51°32.354 3°0.002 16.0573 0.063238 0.379766 -2.871232
2006-12-21 10:50:40 51°32.307 2°59.636 16.1808 0.063238 0.379766 -2.871232
2006-12-21 10:51:40 51°32.263 2°59.272 16.1759 0.063238 0.379766 -2.871232
2006-12-21 10:52:40 51°32.22 2°58.907 16.1889 0.063238 0.379766 -2.871232
2006-12-21 10:53:40 51°32.178 2°58.542 16.1668 0.063238 0.379774 -2.871232
2006-12-21 10:54:40 51°32.135 2°58.179 16.1091 0.063238 0.379783 -2.871232
2006-12-21 10:55:40 51°32.128 2°57.822 16.1571 0.063238 0.379774 -2.871232
2006-12-21 10:56:40 51°32.209 2°57.497 16.1995 0.063238 0.379774 -2.871232
2006-12-21 10:57:40 51°32.33 2°57.213 16.1687 0.063238 0.379783 -2.871232
2006-12-21 10:58:40 51°32.533 2°57.166 16.2293 0.063238 0.379791 -2.871232
2006-12-21 10:59:40 51°32.705 2°57.366 16.2614 0.063238 0.379783 -2.871232
2006-12-21 11:00:40 51°32.814 2°57.682 16.2393 0.063238 0.379791 -2.871232
2006-12-21 11:01:40 51°32.937 2°57.985 16.2461 0.063238 0.379791 -2.871232
2006-12-21 11:02:40 51°33.072 2°58.273 16.2591 0.063238 0.3798 -2.871232
2006-12-21 11:03:40 51°33.222 2°58.538 16.2751 0.063238 0.379791 -2.871232
2006-12-21 11:04:40 51°33.374 2°58.803 16.274 0.063238 0.3798 -2.871232
2006-12-21 11:05:40 51°33.525 2°59.067 16.2888 0.063238 0.379791 -2.871232
2006-12-21 11:06:40 51°33.675 2°59.331 16.3076 0.063238 0.379791 -2.871232
2006-12-21 11:07:40 51°33.838 2°59.574 16.3054 0.063238 0.3798 -2.871232
2006-12-21 11:08:40 51°34.004 2°59.81 16.3465 0.063238 0.379791 -2.871232
2006-12-21 11:09:40 51°34.171 3°0.047 16.3481 0.063238 0.379791 -2.871232
2006-12-21 11:10:40 51°34.346 3°0.256 16.3475 0.063238 0.3798 -2.871232
2006-12-21 11:11:40 51°34.551 3°0.262 16.3553 0.063238 0.379808 -2.871232
2006-12-21 11:12:40 51°34.71 3°0.03 16.3814 0.063238 0.379783 -2.871232
2006-12-21 11:13:40 51°34.824 2°59.731 16.3745 0.063238 0.379783 -2.871232
2006-12-21 11:14:40 51°34.885 2°59.389 16.4193 0.063238 0.379783 -2.871232
2006-12-21 11:15:40 51°34.803 2°59.059 16.4109 0.063238 0.379783 -2.871232
2006-12-21 11:16:40 51°34.681 2°58.747 16.4526 0.063238 0.379774 -2.871232
2006-12-21 11:17:40 51°34.56 2°58.436 16.4247 0.063238 0.379783 -2.871232
2006-12-21 11:18:40 51°34.44 2°58.125 16.4732 0.063238 0.379783 -2.871232
2006-12-21 11:19:40 51°34.321 2°57.812 16.5405 0.063238 0.379774 -2.871232
2006-12-21 11:20:40 51°34.203 2°57.498 16.5834 0.063238 0.379766 -2.871232
2006-12-21 11:21:40 51°34.085 2°57.184 16.5375 0.063238 0.379774 -2.871232
2006-12-21 11:22:40 51°33.969 2°56.872 16.5534 0.063238 0.379766 -2.871232
2006-12-21 11:23:40 51°33.852 2°56.562 16.627 0.063238 0.379766 -2.871232
2006-12-21 11:24:40 51°33.727 2°56.261 16.6452 0.063238 0.379758 -2.871232
2006-12-21 11:25:40 51°33.603 2°55.962 16.6602 0.063238 0.379766 -2.871232
2006-12-21 11:26:40 51°33.478 2°55.663 16.6176 0.063238 0.379774 -2.871232
2006-12-21 11:27:40 51°33.354 2°55.367 16.7056 0.063238 0.379766 -2.871232
2006-12-21 11:28:40 51°33.229 2°55.071 16.7109 0.063238 0.379766 -2.871232
2006-12-21 11:29:40 51°33.107 2°54.774 16.7246 0.063238 0.379783 -2.871232
2006-12-21 11:30:40 51°32.986 2°54.48 16.6834 0.063238 0.379783 -2.871232
2006-12-21 11:31:40 51°32.866 2°54.183 16.8027 0.063238 0.379766 -2.871232
2006-12-21 11:32:40 51°32.741 2°53.893 16.7734 0.063238 0.379774 -2.871232
2006-12-21 11:33:40 51°32.614 2°53.606 16.8094 0.063238 0.379766 -2.871232
2006-12-21 11:34:40 51°32.488 2°53.319 16.7914 0.063238 0.379774 -2.871232
2006-12-21 11:35:40 51°32.365 2°53.031 16.812 0.063238 0.379783 -2.871232
2006-12-21 11:36:40 51°32.241 2°52.746 16.8593 0.063238 0.379774 -2.871232
2006-12-21 11:37:40 51°32.119 2°52.46 16.8731 0.063238 0.379791 -2.871232
2006-12-21 11:38:40 51°31.996 2°52.17 16.8902 0.063238 0.379791 -2.871232
2006-12-21 11:39:40 51°31.874 2°51.883 16.8877 0.063238 0.379791 -2.871232
2006-12-21 11:40:40 51°31.753 2°51.593 16.9082 0.063238 0.3798 -2.871232
2006-12-21 11:41:40 51°31.634 2°51.305 16.9346 0.063238 0.3798 -2.871232
2006-12-21 11:42:40 51°31.514 2°51.017 16.9228 0.063238 0.379808 -2.871232
2006-12-21 11:43:40 51°31.396 2°50.727 16.9042 0.063238 0.379808 -2.871232
2006-12-21 11:44:40 51°31.277 2°50.438 16.9622 0.063238 0.3798 -2.871232
2006-12-21 11:45:40 51°31.16 2°50.15 17.0177 0.063238 0.3798 -2.871232
2006-12-21 11:46:40 51°31.047 2°49.861 17.0243 0.063238 0.3798 -2.871232
2006-12-21 11:47:40 51°30.946 2°49.561 16.9335 0.063238 0.379808 -2.871232
2006-12-21 11:48:40 51°30.847 2°49.26 16.933 0.063238 0.379816 -2.871232
2006-12-21 11:49:40 51°30.75 2°48.958 17.029 0.063238 0.3798 -2.871232
2006-12-21 11:50:40 51°30.654 2°48.659 17.0653 0.063238 0.3798 -2.871232
2006-12-21 11:51:40 51°30.552 2°48.365 16.9985 0.063238 0.379816 -2.871232
2006-12-21 11:52:40 51°30.442 2°48.079 17.0484 0.063238 0.379816 -2.871232
2006-12-21 11:53:40 51°30.333 2°47.794 17.0508 0.063238 0.3798 -2.871232
2006-12-21 11:54:40 51°30.225 2°47.508 17.1042 0.063238 0.379808 -2.871232
2006-12-21 11:55:40 51°30.137 2°47.208 17.1579 0.063238 0.379808 -2.871232
2006-12-21 11:56:40 51°30.103 2°46.878 17.1586 0.063238 0.3798 -2.871232
2006-12-21 11:57:40 51°30.167 2°46.563 17.1429 0.063238 0.379808 -2.871232
2006-12-21 11:58:39 51°30.349 2°46.367 17.1607 0.063341 0.380447 -2.871232
2006-12-21 11:59:40 51°30.55 2°46.185 17.1375 0.063341 0.380456 -2.871232
2006-12-21 12:00:40 51°30.758 2°46.098 17.1046 0.063341 0.380464 -2.871232
2006-12-21 12:01:40 51°30.909 2°46.395 17.1303 0.063341 0.380439 -2.871232
2006-12-21 12:02:40 51°31.001 2°46.77 17.1118 0.063238 0.379825 -2.871232
2006-12-21 12:03:40 51°31.108 2°47.136 17.1209 0.063341 0.380464 -2.871232
2006-12-21 12:04:40 51°31.234 2°47.487 17.1165 0.063238 0.379808 -2.871232
2006-12-21 12:05:40 51°31.36 2°47.836 17.1452 0.063341 0.380447 -2.871232
2006-12-21 12:06:40 51°31.486 2°48.184 17.1575 0.063341 0.380447 -2.871232
2006-12-21 12:07:40 51°31.614 2°48.532 17.1458 0.063341 0.380439 -2.871232
2006-12-21 12:08:40 51°31.739 2°48.881 17.2011 0.063341 0.380431 -2.871232
2006-12-21 12:09:40 51°31.867 2°49.231 17.203 0.063341 0.380431 -2.871232
2006-12-21 12:10:40 51°31.994 2°49.58 17.2059 0.063341 0.380422 -2.871232
2006-12-21 12:11:40 51°32.123 2°49.927 17.2221 0.063341 0.380414 -2.871232
2006-12-21 12:12:40 51°32.25 2°50.276 17.2464 0.063341 0.380405 -2.871232
2006-12-21 12:13:40 51°32.378 2°50.624 17.2384 0.063341 0.380405 -2.871232
2006-12-21 12:14:40 51°32.506 2°50.969 17.2419 0.063341 0.380397 -2.871232
2006-12-21 12:15:40 51°32.636 2°51.313 17.2685 0.063341 0.380388 -2.871232
2006-12-21 12:16:40 51°32.765 2°51.659 17.29 0.063341 0.380372 -2.871232
2006-12-21 12:17:40 51°32.895 2°52.003 17.2928 0.063341 0.380372 -2.871232
2006-12-21 12:18:40 51°33.026 2°52.347 17.3059 0.063341 0.380363 -2.871232
2006-12-21 12:19:40 51°33.156 2°52.694 17.3234 0.063341 0.380346 -2.871232
2006-12-21 12:20:40 51°33.242 2°53.073 17.351 0.063341 0.380338 -2.871232
2006-12-21 12:21:40 51°33.22 2°53.466 17.3323 0.063341 0.38033 -2.871232
2006-12-21 12:22:40 51°33.108 2°53.806 17.3868 0.063341 0.380338 -2.871232
2006-12-21 12:23:39 51°32.95 2°54.076 17.4581 0.063341 0.380321 -2.871232
2006-12-21 12:24:39 51°32.772 2°54.317 17.465 0.063341 0.38033 -2.871232
2006-12-21 12:25:39 51°32.595 2°54.562 17.5065 0.063341 0.380304 -2.871232
2006-12-21 12:26:40 51°32.408 2°54.791 17.541 0.063341 0.380296 -2.871232
2006-12-21 12:27:39 51°32.22 2°54.988 17.5619 0.063341 0.380296 -2.871232
2006-12-21 12:28:39 51°32.026 2°55.183 17.5476 0.063341 0.380296 -2.871232
2006-12-21 12:29:40 51°31.831 2°55.385 17.6042 0.063341 0.380279 -2.871232
2006-12-21 12:30:39 51°31.641 2°55.581 17.6134 0.063341 0.380288 -2.871232
2006-12-21 12:31:40 51°31.44 2°55.768 17.6371 0.063341 0.380279 -2.871232
2006-12-21 12:32:40 51°31.242 2°55.943 17.6443 0.063341 0.380279 -2.871232
2006-12-21 12:33:40 51°31.042 2°56.118 17.7041 0.063341 0.380271 -2.871232
2006-12-21 12:34:40 51°30.839 2°56.268 17.7008 0.063341 0.380254 -2.871232
2006-12-21 12:35:40 51°30.629 2°56.331 17.6271 0.063341 0.380254 -2.871232
2006-12-21 12:36:40 51°30.423 2°56.307 17.756 0.063341 0.380254 -2.871232
2006-12-21 12:37:40 51°30.213 2°56.296 17.7179 0.063341 0.380262 -2.871232
2006-12-21 12:38:40 51°30.005 2°56.288 17.6977 0.063444 0.380893 -2.871232
2006-12-21 12:39:40 51°29.834 2°56.139 17.6201 0.063341 0.380271 -2.871232
2006-12-21 12:40:40 51°29.87 2°55.859 17.8412 0.063341 0.380262 -2.871232
2006-12-21 12:41:40 51°30.008 2°55.72 17.8302 0.063341 0.380246 -2.871232
2006-12-21 12:42:40 51°30.106 2°55.669 17.8776 0.063341 0.380262 -2.871232
2006-12-21 12:43:40 51°30.103 2°55.493 17.9203 0.063341 0.380313 -2.871232
2006-12-21 12:44:39 51°29.922 2°55.448 17.819 0.063444 0.380876 -2.871232
2006-12-21 12:45:40 51°29.709 2°55.454 17.9515 0.063341 0.380229 -2.871232
2006-12-21 12:46:40 51°29.499 2°55.455 17.9279 0.063341 0.380237 -2.871232
2006-12-21 12:47:40 51°29.288 2°55.459 18.0329 0.063444 0.380859 -2.871232
2006-12-21 12:48:40 51°29.078 2°55.457 17.9981 0.063444 0.380868 -2.871232
2006-12-21 12:49:40 51°28.87 2°55.451 18.0051 0.063444 0.380851 -2.871232
2006-12-21 12:50:40 51°28.66 2°55.444 17.9357 0.063444 0.380843 -2.871232
2006-12-21 12:51:40 51°28.45 2°55.435 17.9976 0.063444 0.380851 -2.871232
2006-12-21 12:52:40 51°28.241 2°55.428 18.0248 0.063444 0.380843 -2.871232
2006-12-21 12:53:40 51°28.032 2°55.422 18.0181 0.063444 0.380834 -2.871232
2006-12-21 12:54:40 51°27.822 2°55.416 18.1006 0.063444 0.380826 -2.871232
2006-12-21 12:55:40 51°27.612 2°55.411 18.1073 0.063444 0.380817 -2.871232
2006-12-21 12:56:40 51°27.404 2°55.411 18.093 0.063444 0.380817 -2.871232
2006-12-21 12:57:40 51°27.199 2°55.402 18.1162 0.063444 0.380809 -2.871232
2006-12-21 12:58:40 51°26.997 2°55.372 18.1219 0.063444 0.380801 -2.871232
2006-12-21 12:59:40 51°26.795 2°55.339 18.0958 0.063444 0.380809 -2.871232
2006-12-21 13:00:40 51°26.596 2°55.293 18.1197 0.063444 0.380809 -2.871232
2006-12-21 13:01:40 51°26.397 2°55.236 18.1025 0.063444 0.380801 -2.871232
2006-12-21 13:02:40 51°26.198 2°55.171 18.1268 0.063444 0.380801 -2.871232
2006-12-21 13:03:40 51°25.997 2°55.11 18.1497 0.063444 0.380792 -2.871232
2006-12-21 13:04:40 51°25.797 2°55.046 18.2288 0.063444 0.380784 -2.871232
2006-12-21 13:05:40 51°25.59 2°55.007 18.2237 0.063444 0.380775 -2.871232
2006-12-21 13:06:40 51°25.383 2°54.967 18.2196 0.063444 0.380775 -2.871232
2006-12-21 13:07:40 51°25.175 2°54.932 18.168 0.063444 0.380775 -2.871232
2006-12-21 13:08:40 51°24.967 2°54.895 18.1661 0.063444 0.380775 -2.871232
2006-12-21 13:09:40 51°24.759 2°54.856 18.2002 0.063444 0.380767 -2.871232
2006-12-21 13:10:40 51°24.551 2°54.819 18.1982 0.063444 0.380767 -2.871232
2006-12-21 13:11:40 51°24.345 2°54.785 18.233 0.063444 0.380758 -2.871232
2006-12-21 13:12:40 51°24.14 2°54.75 18.2364 0.063444 0.38075 -2.871232
2006-12-21 13:13:40 51°23.937 2°54.712 18.2697 0.063444 0.380742 -2.871232
2006-12-21 13:14:40 51°23.733 2°54.676 18.2673 0.063444 0.380742 -2.871232
2006-12-21 13:15:40 51°23.53 2°54.638 18.2545 0.063444 0.380733 -2.871232
2006-12-21 13:16:40 51°23.327 2°54.597 18.2926 0.063444 0.380733 -2.871232
2006-12-21 13:17:40 51°23.124 2°54.565 18.2268 0.063444 0.380725 -2.871232
2006-12-21 13:18:40 51°22.923 2°54.522 18.3165 0.063444 0.380725 -2.871232
2006-12-21 13:19:40 51°22.724 2°54.464 18.3497 0.063444 0.380716 -2.871232
2006-12-21 13:20:40 51°22.526 2°54.404 18.2266 0.063444 0.380716 -2.871232
2006-12-21 13:21:40 51°22.327 2°54.342 18.3005 0.063444 0.380708 -2.871232
2006-12-21 13:22:40 51°22.126 2°54.276 18.1778 0.063444 0.380708 -2.871232
2006-12-21 13:23:40 51°21.922 2°54.208 18.3453 0.063444 0.3807 -2.871232
2006-12-21 13:24:40 51°21.717 2°54.14 18.3351 0.063444 0.3807 -2.871232
2006-12-21 13:25:40 51°21.513 2°54.067 18.2709 0.063547 0.38133 -2.871232
2006-12-21 13:26:40 51°21.307 2°53.994 18.3329 0.063444 0.380691 -2.871232
2006-12-21 13:27:40 51°21.104 2°53.921 18.3333 0.063444 0.380691 -2.871232
2006-12-21 13:28:40 51°20.901 2°53.853 18.4191 0.063444 0.380683 -2.871232
2006-12-21 13:29:40 51°20.702 2°53.786 18.3713 0.063444 0.380683 -2.871232
2006-12-21 13:30:40 51°20.504 2°53.719 18.4041 0.063444 0.380666 -2.871232
2006-12-21 13:31:40 51°20.308 2°53.646 18.39 0.063444 0.380674 -2.871232
2006-12-21 13:32:40 51°20.111 2°53.571 18.3479 0.063444 0.380683 -2.871232
2006-12-21 13:33:40 51°19.913 2°53.478 18.3761 0.063547 0.381313 -2.871232
2006-12-21 13:34:40 51°19.715 2°53.383 18.3754 0.063444 0.380666 -2.871232
2006-12-21 13:35:40 51°19.517 2°53.289 18.3915 0.063444 0.380649 -2.871232
2006-12-21 13:36:40 51°19.322 2°53.193 18.4096 0.063444 0.380649 -2.871232
2006-12-21 13:37:40 51°19.124 2°53.097 18.362 0.063547 0.381296 -2.871232
2006-12-21 13:38:40 51°18.926 2°52.996 18.3863 0.063444 0.380649 -2.871232
2006-12-21 13:39:40 51°18.726 2°52.895 18.2502 0.063547 0.381279 -2.871232
2006-12-21 13:40:40 51°18.528 2°52.792 18.259 0.063444 0.380641 -2.871232
2006-12-21 13:41:40 51°18.327 2°52.695 18.2226 0.063547 0.381271 -2.871232
2006-12-21 13:42:40 51°18.126 2°52.613 18.2787 0.063547 0.381271 -2.871232
2006-12-21 13:43:40 51°17.919 2°52.571 18.2667 0.063547 0.381279 -2.871232
2006-12-21 13:44:40 51°17.711 2°52.536 18.3053 0.063547 0.381263 -2.871232
2006-12-21 13:45:40 51°17.501 2°52.523 18.3163 0.063547 0.381263 -2.871232
2006-12-21 13:46:40 51°17.289 2°52.562 18.3197 0.063547 0.381263 -2.871232
2006-12-21 13:47:40 51°17.078 2°52.632 18.3369 0.063547 0.381254 -2.871232
2006-12-21 13:48:40 51°16.868 2°52.711 18.3405 0.063547 0.381254 -2.871232
2006-12-21 13:49:40 51°16.659 2°52.8 18.3551 0.063547 0.381246 -2.871232
2006-12-21 13:50:40 51°16.452 2°52.911 18.3781 0.063547 0.381237 -2.871232
2006-12-21 13:51:40 51°16.249 2°53.04 18.3842 0.063547 0.381229 -2.871232
2006-12-21 13:52:40 51°16.046 2°53.166 18.3939 0.063547 0.381229 -2.871232
2006-12-21 13:53:40 51°15.842 2°53.3 18.4146 0.063547 0.381221 -2.871232
2006-12-21 13:54:40 51°15.641 2°53.446 18.2092 0.063547 0.381221 -2.871232
2006-12-21 13:55:40 51°15.445 2°53.615 18.4706 0.063547 0.381212 -2.871232
2006-12-21 13:56:40 51°15.256 2°53.804 18.4891 0.063547 0.381212 -2.871232
2006-12-21 13:57:40 51°15.072 2°54.008 18.4961 0.063547 0.381195 -2.871232
2006-12-21 13:58:40 51°14.887 2°54.21 18.516 0.063547 0.381187 -2.871232
2006-12-21 13:59:40 51°14.728 2°54.444 18.5323 0.063547 0.381187 -2.871232
2006-12-21 14:00:40 51°14.572 2°54.697 18.5602 0.063547 0.38117 -2.871232
2006-12-21 14:01:40 51°14.425 2°54.971 18.5527 0.063547 0.38117 -2.871232
2006-12-21 14:02:41 51°14.283 2°55.226 18.5595 0.063547 0.38117 -2.871232
2006-12-21 14:03:44 51°14.15 2°55.387 18.5805 0.063547 0.381162 -2.871232
2006-12-21 14:04:43 51°14.027 2°55.492 18.5827 0.063547 0.381153 -2.871232
2006-12-21 14:05:44 51°13.929 2°55.57 18.5976 0.063547 0.381145 -2.871232
2006-12-21 14:06:43 51°13.839 2°55.642 18.6207 0.063547 0.381145 -2.871232
2006-12-21 14:07:42 51°13.751 2°55.725 18.6384 0.063547 0.381136 -2.871232
2006-12-21 14:08:44 51°13.677 2°55.842 18.6586 0.063547 0.381136 -2.871232
2006-12-21 14:09:44 51°13.63 2°55.963 18.6721 0.063547 0.38112 -2.871232